COSMOS 1691 DEB, 16270

Orbit data source: Space-Track

COSMOS 1691 DEB, 16270 is space debris in LEO originally from a launch on Wed, 09 Oct 1985 UTC launched from the Plesetsk Missile And Space Complex (PKMTR). Debris objects in space refer to the collection of defunct objects orbiting the Earth. Examples of debris include non-operational satellites, rocket bodies, and fragments generated from explosions, collisions, or faulty payload assembly.

Loading next visibility...
Identifier
16270, 1985-094P
Orbit
LEO
Country
Flag of CISCIS
Related business
Manufacturer
Unknown
Mission
Spacecraft
Bus & Motor
Unknown
Mass
Unknown
Launch date (UTC)
1985-10-09 (40 years ago)
Launch vehicle
Unknown
Launch site
Plesetsk Missile And Space Complex (PKMTR)
Object type
Payload
Rocket body
Debris
Shape & HBR
Unknown shape, 0.2 m
Radar Cross Section
Medium (>0.1 m² and <1 m²)

Expand to show TLE details & history
Last TLE update: 11 hours ago

TLE from 11 hours ago
0 COSMOS 1691 DEB
1 16270U 85094P   25341.29891631  .00000186  00000-0  76881-3 0  9994
2 16270  82.7299 107.0357 0261850 127.0788 266.5909 12.69094657857447
Epoch: 2025-12-07T07:10Z
TLE epoch observation values (Epoch: 2025-12-07T07:10:26.369Z)
Latitude
30.45706°
Longitude
-72.60755°
Altitude
1,406.725 km
Speed
7.152 km/s
True Right ascension
07h 25m 15s
True Declination
30° 19' 10"
Sunlit
Object was in full shadow at epoch
Visualization orbit readout
Latitude
Unknown
Longitude
Unknown
Altitude
Unknown
Speed
Unknown
Apparent Right ascension
Unknown
Apparent Declination
Unknown
Sunlit
N/A
Visualization observer readout
Local Sidereal Time
16:19:09
Azimuth
Unknown
Elevation
Unknown
Doppler factor
Unknown
Orbital elements
Apogee altitude
1,586.156 km
Perigee altitude
1,179.709 km
Semi-major axis
7,761.07 km
Eccentricity
0.02619
Inclination
82.7299°
RAAN
107.0357°
Arg. of periapsis
127.0788°
True anomaly
263.6028°
Mean anomaly
266.5909°
Eccentric anomaly
265.0961°
Mean motion
3.17439 °/min
Orbital period
113.41 mins
BSTAR
0.00076881
Loading maneuver chart data...
Computing Atmospheric mass density...
Loading historical data...
Loading historical data...
Loading historical data...
Loading historical data...
Loading historical data...
Loading historical data...
Loading historical data...

Documentation

Showing up to 5 results
|